Total_Precipitation_Accumulation
0.15 0.19 0.28 0.19 0.08 0.19 0.12 0.08 0.12 0.21 0.35 0.28 0.25 0.24 0.30 0.44 0.61 0.70 0.63 0.57 0.49 0.40
0.31 0.53 0.25 0.24 0.28 0.31 0.36 0.34 0.28 0.34 0.42 0.42 0.38 0.50 0.57 0.54 0.38 0.26 0.21 0.24 0.28 0.28
0.06 0.16 0.24 0.17 0.25 0.50 0.59 0.45 0.50 0.47 0.48 0.42 0.31 0.31 0.34 0.30 0.22 0.23 0.25 0.24 0.26 0.20
0.25 0.19 0.36 0.41 0.62 0.53 0.52 0.62 0.67 0.47 0.35 0.29 0.42 0.46 0.33 0.31 0.31 0.31 0.34 0.31 0.23 0.16
0.70 0.58 0.59 0.68 0.69 0.77 0.77 0.71 0.56 0.37 0.29 0.30 0.33 0.51 0.65 0.57 0.50 0.47 0.41 0.32 0.19 0.11
0.92 1.04 0.83 0.70 0.49 0.30 0.31 0.35 0.31 0.32 0.28 0.29 0.29 0.30 0.30 0.31 0.33 0.32 0.27 0.18 0.10 0.06
0.37 0.53 0.25 0.28 0.23 0.18 0.13 0.14 0.17 0.13 0.13 0.13 0.14 0.17 0.22 0.26 0.25 0.16 0.09 0.05 0.04 0.04
0.20 0.23 0.15 0.19 0.19 0.12 0.10 0.11 0.15 0.12 0.10 0.11 0.13 0.16 0.18 0.15 0.08 0.05 0.06 0.04 0.03 0.02
0.10 0.15 0.14 0.16 0.15 0.13 0.14 0.19 0.20 0.20 0.18 0.15 0.17 0.30 0.23 0.13 0.06 0.03 0.03 0.03 0.01 0.03
0.04 0.12 0.12 0.11 0.13 0.14 0.15 0.21 0.22 0.21 0.23 0.17 0.14 0.24 0.20 0.14 0.04 0.03 0.03 0.02 0.02 0.02
0.05 0.10 0.12 0.12 0.10 0.13 0.14 0.15 0.17 0.16 0.13 0.13 0.14 0.17 0.10 0.09 0.02 0.03 0.03 0.02 0.02 0.02
0.04 0.07 0.07 0.07 0.08 0.09 0.10 0.09 0.07 0.07 0.07 0.07 0.08 0.10 0.04 0.03 0.00 0.02 0.03 0.03 0.03 0.01
0.03 0.05 0.04 0.04 0.06 0.05 0.05 0.06 0.05 0.05 0.05 0.08 0.05 0.08 0.04 0.02 0.01 0.03 0.04 0.04 0.03 0.01
0.03 0.04 0.02 0.03 0.05 0.04 0.04 0.05 0.04 0.05 0.04 0.04 0.05 0.06 0.05 0.03 0.01 0.01 0.02 0.01 0.00 0.00